Hourly Weather Zatoka

Today, 3 July, Friday

Time Temperature Precipitation Wind Pressure Humidity
00:00 +24°C° 0 mm 1 mps 755 mmHg 55%
01:00 +23°C° 0 mm 1 mps 755 mmHg 56%
02:00 +23°C° 0 mm 1 mps 755 mmHg 56%
03:00 +23°C° 0 mm 1 mps 755 mmHg 56%
04:00 +23°C° 0 mm 2 mps 755 mmHg 57%
05:00 +23°C° 0 mm 2 mps 755 mmHg 57%
06:00 +25°C° 0 mm 2 mps 755 mmHg 53%
07:00 +27°C° 0 mm 2 mps 755 mmHg 50%
08:00 +29°C° 0 mm 2 mps 755 mmHg 46%
09:00 +30°C° 0 mm 3 mps 755 mmHg 45%
10:00 +31°C° 0 mm 3 mps 755 mmHg 44%
11:00 +33°C° 0 mm 4 mps 755 mmHg 43%
12:00 +33°C° 0 mm 4 mps 755 mmHg 43%
13:00 +33°C° 0 mm 4 mps 754 mmHg 43%
14:00 +33°C° 0 mm 4 mps 754 mmHg 43%
15:00 +33°C° 0 mm 3 mps 754 mmHg 45%
16:00 +33°C° 0 mm 3 mps 754 mmHg 47%
17:00 +31°C° 0 mm 2 mps 753 mmHg 49%
18:00 +29°C° 0 mm 2 mps 754 mmHg 57%
19:00 +27°C° 0 mm 1 mps 754 mmHg 65%
20:00 +26°C° 0 mm 1 mps 754 mmHg 73%
21:00 +25°C° 0 mm 1 mps 754 mmHg 75%
22:00 +25°C° 0 mm 1 mps 754 mmHg 76%
23:00 +24°C° 0 mm 1 mps 754 mmHg 78%

Tomorrow, 4 July, Saturday

Time Temperature Precipitation Wind Pressure Humidity
00:00 +24°C° 0 mm 1 mps 754 mmHg 77%
01:00 +24°C° 0 mm 1 mps 754 mmHg 76%
02:00 +24°C° 0 mm 1 mps 754 mmHg 76%
03:00 +24°C° 0 mm 1 mps 754 mmHg 75%
04:00 +24°C° 0 mm 1 mps 754 mmHg 74%
05:00 +24°C° 0 mm 2 mps 754 mmHg 73%
06:00 +26°C° 0 mm 2 mps 754 mmHg 65%
07:00 +28°C° 0 mm 2 mps 755 mmHg 57%
08:00 +30°C° 0 mm 2 mps 755 mmHg 49%
09:00 +31°C° 0 mm 2 mps 755 mmHg 45%
10:00 +32°C° 0 mm 2 mps 755 mmHg 42%
11:00 +34°C° 0 mm 2 mps 755 mmHg 38%
12:00 +35°C° 0 mm 2 mps 754 mmHg 38%
13:00 +35°C° 0 mm 2 mps 754 mmHg 37%
14:00 +35°C° 0 mm 3 mps 754 mmHg 36%
15:00 +35°C° 0 mm 3 mps 754 mmHg 37%
16:00 +35°C° 0 mm 2 mps 753 mmHg 38%
17:00 +34°C° 0 mm 2 mps 753 mmHg 39%
18:00 +32°C° 0 mm 2 mps 753 mmHg 44%
19:00 +30°C° 0 mm 2 mps 754 mmHg 49%
20:00 +28°C° 0 mm 2 mps 754 mmHg 54%
21:00 +28°C° 0 mm 2 mps 754 mmHg 55%
22:00 +27°C° 0 mm 3 mps 754 mmHg 56%
23:00 +26°C° 0 mm 3 mps 754 mmHg 57%

Day after tomorrow, 5 July, Sunday

Time Temperature Precipitation Wind Pressure Humidity
00:00 +26°C° 0 mm 3 mps 754 mmHg 61%
01:00 +26°C° 0 mm 3 mps 754 mmHg 64%
02:00 +26°C° 0 mm 3 mps 753 mmHg 67%
03:00 +25°C° 0 mm 3 mps 753 mmHg 71%
04:00 +25°C° 0 mm 3 mps 753 mmHg 75%
05:00 +24°C° 0 mm 3 mps 753 mmHg 79%
06:00 +26°C° 0 mm 3 mps 753 mmHg 70%
07:00 +28°C° 0 mm 3 mps 753 mmHg 62%
08:00 +30°C° 0 mm 4 mps 754 mmHg 53%
09:00 +33°C° 0 mm 4 mps 754 mmHg 47%
10:00 +34°C° 0 mm 4 mps 754 mmHg 41%
11:00 +35°C° 0 mm 4 mps 754 mmHg 36%
12:00 +36°C° 0 mm 4 mps 753 mmHg 35%
13:00 +36°C° 0 mm 4 mps 753 mmHg 34%
14:00 +37°C° 0 mm 3 mps 753 mmHg 32%
15:00 +36°C° 0 mm 3 mps 753 mmHg 33%
16:00 +36°C° 0 mm 2 mps 753 mmHg 33%
17:00 +36°C° 0 mm 2 mps 752 mmHg 33%
18:00 +34°C° 0 mm 2 mps 752 mmHg 38%
19:00 +33°C° 0 mm 3 mps 753 mmHg 43%
20:00 +30°C° 0 mm 3 mps 753 mmHg 48%
21:00 +29°C° 0 mm 4 mps 753 mmHg 52%
22:00 +29°C° 0 mm 5 mps 753 mmHg 57%
23:00 +28°C° 0 mm 6 mps 753 mmHg 61%

6 July, Monday

Time Temperature Precipitation Wind Pressure Humidity
00:00 +28°C° 0 mm 6 mps 753 mmHg 64%
01:00 +27°C° 0 mm 6 mps 753 mmHg 67%
02:00 +27°C° 0 mm 6 mps 753 mmHg 70%
03:00 +26°C° 0 mm 6 mps 753 mmHg 71%
04:00 +26°C° 0 mm 6 mps 753 mmHg 72%
05:00 +25°C° 0 mm 5 mps 753 mmHg 73%
06:00 +27°C° 0 mm 6 mps 753 mmHg 68%
07:00 +28°C° 0 mm 6 mps 753 mmHg 64%
08:00 +30°C° 0 mm 6 mps 754 mmHg 60%
09:00 +32°C° 0 mm 5 mps 754 mmHg 54%
10:00 +34°C° 0 mm 5 mps 754 mmHg 48%
11:00 +35°C° 0 mm 5 mps 754 mmHg 42%
12:00 +36°C° 0 mm 4 mps 753 mmHg 40%
13:00 +36°C° 0 mm 4 mps 753 mmHg 37%
14:00 +37°C° 0 mm 4 mps 753 mmHg 35%
15:00 +36°C° 0 mm 3 mps 752 mmHg 36%
16:00 +36°C° 0 mm 3 mps 752 mmHg 36%
17:00 +36°C° 0 mm 2 mps 752 mmHg 37%
18:00 +34°C° 0 mm 2 mps 752 mmHg 41%
19:00 +33°C° 0 mm 3 mps 751 mmHg 45%
20:00 +30°C° 0 mm 3 mps 751 mmHg 50%
21:00 +30°C° 0 mm 3 mps 751 mmHg 53%
22:00 +29°C° 0 mm 4 mps 751 mmHg 56%
23:00 +28°C° 0 mm 5 mps 751 mmHg 60%

7 July, Tuesday

Time Temperature Precipitation Wind Pressure Humidity
00:00 +28°C° 0 mm 5 mps 751 mmHg 63%
01:00 +27°C° 0 mm 5 mps 751 mmHg 66%
02:00 +27°C° 0 mm 5 mps 750 mmHg 69%
03:00 +26°C° 0 mm 5 mps 750 mmHg 72%
04:00 +26°C° 0 mm 5 mps 750 mmHg 74%
05:00 +25°C° 0 mm 5 mps 750 mmHg 77%
06:00 +27°C° 0 mm 4 mps 750 mmHg 69%
07:00 +29°C° 0 mm 4 mps 750 mmHg 60%
08:00 +32°C° 0 mm 4 mps 750 mmHg 52%
09:00 +33°C° 0 mm 4 mps 750 mmHg 47%
10:00 +34°C° 0 mm 3 mps 750 mmHg 42%
11:00 +36°C° 0 mm 3 mps 749 mmHg 37%
12:00 +36°C° 0 mm 3 mps 749 mmHg 35%
13:00 +37°C° 0 mm 2 mps 749 mmHg 33%
14:00 +37°C° 0 mm 2 mps 749 mmHg 31%
15:00 +36°C° 0 mm 2 mps 748 mmHg 33%
16:00 +34°C° 0 mm 1 mps 748 mmHg 35%
17:00 +34°C° 0 mm 1 mps 748 mmHg 37%
18:00 +32°C° 0.1 mm 2 mps 748 mmHg 41%
19:00 +31°C° 0.1 mm 3 mps 748 mmHg 46%
20:00 +30°C° 0.1 mm 4 mps 749 mmHg 50%
21:00 +29°C° 0 mm 6 mps 749 mmHg 58%
22:00 +28°C° 0 mm 7 mps 749 mmHg 65%
23:00 +27°C° 0 mm 8 mps 749 mmHg 73%

8 July, Wednesday

Time Temperature Precipitation Wind Pressure Humidity
00:00 +26°C° 0 mm 9 mps 749 mmHg 76%
01:00 +24°C° 0 mm 9 mps 749 mmHg 79%
02:00 +23°C° 0 mm 9 mps 749 mmHg 82%
03:00 +23°C° 0 mm 10 mps 750 mmHg 83%
04:00 +22°C° 0 mm 10 mps 750 mmHg 83%
05:00 +22°C° 0 mm 11 mps 750 mmHg 84%
06:00 +22°C° 0 mm 11 mps 750 mmHg 81%
07:00 +22°C° 0 mm 11 mps 751 mmHg 77%
08:00 +22°C° 0 mm 11 mps 751 mmHg 74%
09:00 +23°C° 0.1 mm 11 mps 752 mmHg 69%
10:00 +24°C° 0.1 mm 11 mps 752 mmHg 65%
11:00 +26°C° 0.1 mm 11 mps 752 mmHg 61%
12:00 +26°C° 0 mm 11 mps 753 mmHg 59%
13:00 +26°C° 0 mm 11 mps 753 mmHg 57%
14:00 +26°C° 0 mm 12 mps 753 mmHg 56%
15:00 +23°C° 0 mm 11 mps 753 mmHg 60%
16:00 +22°C° 0 mm 11 mps 753 mmHg 63%
17:00 +19°C° 0 mm 11 mps 754 mmHg 67%
18:00 +19°C° 0 mm 11 mps 754 mmHg 66%
19:00 +19°C° 0 mm 10 mps 755 mmHg 65%
20:00 +19°C° 0 mm 10 mps 755 mmHg 64%
21:00 +18°C° 0 mm 10 mps 756 mmHg 65%
22:00 +18°C° 0 mm 9 mps 756 mmHg 65%
23:00 +17°C° 0 mm 9 mps 757 mmHg 66%
Show more